Weather reports worldwide

Advertisment
Tromso, Norway (1026): temperature & dewpoint: 05.12.2019 09:00:00 - 11.12.2019 09:00:00 (CET)Tromso, Norway (1026): wind speed & gusts: 05.12.2019 09:00:00 - 11.12.2019 09:00:00 (CET)Tromso, Norway (1026): wind direction: 05.12.2019 09:00:00 - 11.12.2019 09:00:00 (CET)Tromso, Norway (1026): reduced air pressure: 05.12.2019 09:00:00 - 11.12.2019 09:00:00 (CET)Tromso, Norway (1026): visibility: 05.12.2019 09:00:00 - 11.12.2019 09:00:00 (CET)Tromso, Norway (1026): precipitation: 05.12.2019 09:00:00 - 11.12.2019 09:00:00 (CET)
Date & Time tt [°C] td [°C] ff [km/h] ff [kn] fx [km/h] fx [kn] dd ppp [hPa] vv [km] rr [mm]
11.12.2019 09:00:00 -1,3 -7,3 15 8 39 21 SE 983,0 - 0,0
11.12.2019 08:00:00 -1,0 -6,8 19 11 41 22 SSE 983,5 - 0,0
11.12.2019 07:00:00 -1,1 -6,5 21 11 - - SSE 984,8 75 0,0
11.12.2019 06:00:00 -2,1 -8,3 14 8 34 18 S 986,8 - 0,0
11.12.2019 05:00:00 -3,8 -9,3 8 4 18 10 SE 989,1 - 0,0
11.12.2019 04:00:00 -6,1 -11,0 3 2 22 12 NNE 991,6 75 0,0
11.12.2019 03:00:00 -7,3 -10,4 9 5 14 7 NNW 993,5 - 0,0
11.12.2019 02:00:00 -6,8 -10,2 5 3 11 6 S 995,5 - 0,0
11.12.2019 01:00:00 -7,6 -10,0 5 3 - - N 997,1 75 0,0
11.12.2019 00:00:00 -6,9 -8,4 8 4 13 7 N 999,1 - 0,0
10.12.2019 23:00:00 -6,9 -9,6 10 5 14 8 N 1000,6 - 0,0
10.12.2019 22:00:00 -6,3 -9,6 6 3 19 10 S 1002,1 75 0,0
10.12.2019 21:00:00 -5,7 -8,7 5 3 25 13 S 1002,5 - 0,0
10.12.2019 20:00:00 -5,3 -8,3 7 4 27 14 SSW 1003,3 - 0,0
10.12.2019 19:00:00 -4,6 -6,9 18 10 - - S 1003,6 70 0,0
10.12.2019 18:00:00 -4,6 -6,8 20 11 29 16 S 1003,7 - 0,2
10.12.2019 17:00:00 -4,2 -5,7 10 5 28 15 S 1004,3 - 0,5
10.12.2019 16:00:00 -4,1 -6,1 16 9 31 17 S 1004,3 4,0 0,0
10.12.2019 15:00:00 -4,7 -5,7 18 10 27 14 S 1004,1 - 0,3
10.12.2019 14:00:00 -4,4 -5,3 14 7 22 12 SW 1003,8 - 1,5
10.12.2019 13:00:00 -3,9 -5,0 11 6 - - SW 1003,5 3,5 0,1
10.12.2019 12:00:00 -4,2 -4,9 18 10 37 20 SSW 1002,8 - 0,1
10.12.2019 11:00:00 -4,1 -5,0 16 8 30 16 SSW 1002,5 - 0,2
10.12.2019 10:00:00 -4,7 -5,4 14 7 21 12 S 1002,2 20 0,0
10.12.2019 09:00:00 -4,8 -5,4 4 2 11 6 SW 1001,9 - 0,8
10.12.2019 08:00:00 -4,8 -5,6 3 2 7 4 SE 1001,2 - 1,4
10.12.2019 07:00:00 -5,0 -6,1 4 2 - - S 1000,7 10 0,3
10.12.2019 06:00:00 -5,2 -5,9 7 4 13 7 SSW 1000,2 - 0,2
10.12.2019 05:00:00 -5,0 -6,0 5 3 12 6 SSE 999,7 - 0,2
10.12.2019 04:00:00 -5,1 -6,1 12 7 23 12 NNW 999,3 3,0 1,1
10.12.2019 03:00:00 -5,4 -6,4 6 3 14 7 SSW 998,4 - 0,2
10.12.2019 02:00:00 -4,9 -6,8 9 5 15 8 NNE 997,6 - 0,4
10.12.2019 01:00:00 -4,9 -6,0 9 5 - - NNE 996,4 10 0,7
10.12.2019 00:00:00 -4,2 -7,2 12 6 28 15 NNE 995,2 - 0,3
09.12.2019 23:00:00 -3,9 -5,5 5 3 18 10 N 994,3 - 0,0
09.12.2019 22:00:00 -3,4 -5,9 14 7 30 16 N 993,1 6 0,0
09.12.2019 21:00:00 -3,2 -6,1 14 7 41 22 N 991,6 - 0,2
09.12.2019 20:00:00 -5,0 -5,7 8 5 14 8 S 990,8 - 0,2
09.12.2019 19:00:00 -5,4 -6,1 10 6 - - S 989,5 14 0,1
09.12.2019 18:00:00 -5,3 -6,0 12 7 21 11 SSW 988,5 - 2,0
09.12.2019 17:00:00 -5,3 -6,8 9 5 20 11 S 987,5 - 0,8
09.12.2019 16:00:00 -4,9 -7,6 10 5 17 9 SW 986,1 70 0,0
09.12.2019 15:00:00 -6,6 -7,9 9 5 14 8 SSW 985,1 - 0,0
09.12.2019 14:00:00 -7,2 -10,2 9 5 13 7 S 984,4 - 0,0
09.12.2019 13:00:00 -6,3 -10,0 11 6 - - SSW 983,8 75 0,0
09.12.2019 12:00:00 -5,9 -9,2 10 6 27 15 SSW 982,5 - 0,0
09.12.2019 11:00:00 -5,5 -9,3 13 7 27 14 SSW 981,7 - 0,0
09.12.2019 10:00:00 -5,2 -8,4 16 9 32 18 SSW 981,2 75 0,0
09.12.2019 09:00:00 -5,4 -8,4 16 8 29 16 SW 980,7 - 0,0
09.12.2019 08:00:00 -5,6 -7,6 16 8 28 15 S 980,4 - 0,0
09.12.2019 07:00:00 -5,3 -6,6 18 10 - - SSW 980,2 75 0,0
09.12.2019 06:00:00 -5,4 -6,5 11 6 22 12 S 980,2 - 0,0
09.12.2019 05:00:00 -5,6 -6,3 10 5 13 7 S 980,5 - 0,0
09.12.2019 04:00:00 -6,5 -7,2 7 4 12 6 SSW 980,5 75 0,0
09.12.2019 03:00:00 -5,4 -6,0 3 2 10 6 SW 980,7 - 0,0
09.12.2019 02:00:00 -5,9 -6,6 8 4 10 5 S 980,8 - 0,0
09.12.2019 01:00:00 -5,8 -6,5 5 3 - - S 980,9 70 0,0
09.12.2019 00:00:00 -6,5 -7,6 4 2 6 3 S 981,0 - 0,0
08.12.2019 23:00:00 -6,0 -7,7 3 2 9 5 ENE 981,1 - 0,0
08.12.2019 22:00:00 -4,9 -7,3 6 3 16 9 ENE 981,1 70 0,0
08.12.2019 21:00:00 -4,1 -6,1 10 5 16 8 NE 981,0 - 0,0
08.12.2019 20:00:00 -3,7 -5,7 9 5 23 12 ENE 981,1 - 0,0
08.12.2019 19:00:00 -2,9 -5,4 13 7 - - NE 981,3 75 0,0
08.12.2019 18:00:00 -2,5 -5,7 9 5 19 11 NE 981,2 - 0,0
08.12.2019 17:00:00 -2,7 -5,8 10 5 17 9 NE 981,2 - 0,0
08.12.2019 16:00:00 -4,0 -5,8 6 3 16 8 NNW 981,5 60 0,0
08.12.2019 15:00:00 -3,2 -5,7 10 5 22 12 NE 981,7 - 0,0
08.12.2019 14:00:00 -2,7 -5,0 11 6 27 15 NE 981,9 - 0,2
08.12.2019 13:00:00 -2,6 -4,1 13 7 - - N 981,9 45 0,0
08.12.2019 12:00:00 -2,8 -4,2 16 9 35 19 NE 981,9 - 1,1
08.12.2019 11:00:00 -1,9 -2,8 11 6 26 14 NNE 982,0 - 0,2
08.12.2019 10:00:00 -2,3 -2,8 9 5 16 9 NNE 982,2 2,0 0,6
08.12.2019 09:00:00 -2,2 -2,7 8 5 21 11 N 982,2 - 1,6
08.12.2019 08:00:00 -2,6 -3,2 8 4 16 8 ENE 982,2 - 0,1
08.12.2019 07:00:00 -2,8 -3,4 8 4 - - NNE 982,1 65 0,5
08.12.2019 06:00:00 -3,0 -3,6 10 5 13 7 NE 982,2 - 0,3
08.12.2019 05:00:00 -3,2 -3,8 2 1 6 3 SSW 982,0 - 0,0
08.12.2019 04:00:00 -3,5 -4,6 1 1 4 2 SSE 981,6 75 0,0
08.12.2019 03:00:00 -2,2 -3,5 4 2 7 4 SSW 981,7 - 0,0
08.12.2019 02:00:00 -2,5 -3,8 5 3 6 4 S 981,5 - 0,0
08.12.2019 01:00:00 -2,2 -3,6 4 2 - - SSW 981,3 30 0,0
08.12.2019 00:00:00 -2,5 -4,3 2 1 4 2 E 981,3 - 0,0
07.12.2019 23:00:00 -2,7 -4,6 2 1 10 5 NE 981,1 - 0,0
07.12.2019 22:00:00 -2,9 -4,7 5 3 8 5 NNW 980,7 75 0,0
07.12.2019 21:00:00 -3,3 -5,1 6 4 8 4 WNW 980,3 - 0,0
07.12.2019 20:00:00 -3,5 -5,7 0 0 6 3 N 979,9 - 0,0
07.12.2019 19:00:00 -4,1 -5,9 3 2 - - NE 979,5 70 0,0
07.12.2019 18:00:00 -4,8 -5,8 3 2 8 4 E 979,0 - 0,0
07.12.2019 17:00:00 -5,4 -6,2 6 4 8 4 W 978,4 - 0,0
07.12.2019 16:00:00 -5,2 -6,3 4 2 9 5 NW 978,1 - 0,0
07.12.2019 15:00:00 -4,6 -5,8 5 3 9 5 WNW 977,7 - 0,0
07.12.2019 14:00:00 -4,9 -6,1 8 4 11 6 W 977,2 - 0,0
07.12.2019 13:00:00 -5,1 -6,3 6 4 - - WNW 977,1 70 0,0
07.12.2019 12:00:00 -4,5 -6,0 6 3 10 5 NW 977,0 - 0,0
07.12.2019 11:00:00 -3,9 -5,9 5 3 8 5 N 976,9 - 0,0
07.12.2019 10:00:00 -4,2 -6,4 5 3 8 4 NNW 976,7 70 0,0
07.12.2019 09:00:00 -3,0 -5,5 9 5 14 8 NNW 976,5 - 0,0
07.12.2019 08:00:00 -3,3 -5,6 9 5 14 8 NW 976,2 - 0,0
07.12.2019 07:00:00 -2,4 -4,6 8 4 - - N 975,8 75 0,0
07.12.2019 06:00:00 -2,0 -4,2 6 3 13 7 NE 975,8 - 0,0
07.12.2019 05:00:00 -1,5 -3,9 8 5 11 6 N 975,8 - 0,0
07.12.2019 04:00:00 -1,7 -4,1 5 3 10 5 NW 975,6 75 0,0
07.12.2019 03:00:00 -2,6 -4,1 8 5 13 7 NNW 975,7 - 0,0
07.12.2019 02:00:00 -2,3 -4,4 8 4 11 6 NNW 975,6 - 0,0
07.12.2019 01:00:00 -2,2 -3,7 9 5 - - NW 975,6 75 0,0
07.12.2019 00:00:00 -2,2 -3,5 9 5 12 7 NE 975,7 - 0,0
06.12.2019 23:00:00 -2,6 -3,6 5 3 11 6 WSW 975,5 - 0,0
06.12.2019 22:00:00 -2,4 -3,0 5 3 7 4 NW 975,6 75 0,0
06.12.2019 21:00:00 -2,8 -3,3 5 3 8 4 NW 975,7 - 0,0
06.12.2019 20:00:00 -3,0 -3,5 6 3 8 5 WNW 975,5 - 0,0
06.12.2019 19:00:00 -3,3 -3,8 7 4 - - WSW 975,6 80 0,0
06.12.2019 18:00:00 -3,1 -3,6 5 3 8 4 WSW 975,5 - 0,0
06.12.2019 17:00:00 -2,9 -3,4 3 2 7 4 WNW 975,4 - 0,0
06.12.2019 16:00:00 -2,4 -2,9 4 2 7 4 WSW 975,3 75 0,0
06.12.2019 15:00:00 -2,3 -2,9 5 3 7 4 N 975,3 - 0,0
06.12.2019 14:00:00 -2,2 -2,9 4 2 9 5 N 975,4 - 0,0
06.12.2019 13:00:00 -1,8 -2,5 6 3 - - NNE 975,5 75 0,0
06.12.2019 12:00:00 -1,7 -2,7 8 5 10 5 NNE 975,6 - 0,0
06.12.2019 11:00:00 -1,3 -2,3 4 2 8 4 NNE 975,6 - 0,0
06.12.2019 10:00:00 -0,6 -1,9 4 2 13 7 SSE 975,4 75 0,0
06.12.2019 09:00:00 0,2 -1,5 8 5 15 8 S 975,1 - 0,0
06.12.2019 08:00:00 1,1 -1,6 9 5 16 9 SSW 974,6 - 0,0
06.12.2019 07:00:00 1,3 -0,9 12 6 - - S 974,3 65 0,0
06.12.2019 06:00:00 1,1 -0,8 14 8 25 13 SSW 973,9 - 0,0
06.12.2019 05:00:00 1,4 -1,2 13 7 24 13 SSW 973,6 - 0,0
06.12.2019 04:00:00 1,5 -0,7 15 8 24 13 SSW 973,2 40 0,0
06.12.2019 03:00:00 1,4 -0,4 13 7 25 13 SSW 972,9 - 0,3
06.12.2019 02:00:00 1,0 0,4 16 9 24 13 SSW 972,4 - 0,6
06.12.2019 01:00:00 0,5 0,1 11 6 - - SSW 971,9 3,0 0,4
06.12.2019 00:00:00 0,4 0,0 14 8 24 13 SSW 971,5 - 0,4
05.12.2019 23:00:00 0,7 0,1 13 7 27 14 SSW 971,0 - 0,4
05.12.2019 22:00:00 0,9 0,0 18 10 39 21 SSW 970,6 20 0,1
05.12.2019 21:00:00 2,5 -1,3 23 12 35 19 SSW 969,7 - 0,0
05.12.2019 20:00:00 3,0 -2,7 12 7 22 12 S 969,3 - 0,0
05.12.2019 19:00:00 1,7 -2,2 4 2 - - E 968,9 70 0,0
05.12.2019 18:00:00 2,4 -2,5 3 2 16 9 SSW 968,8 - 0,0
05.12.2019 17:00:00 3,1 -3,7 9 5 25 13 S 969,1 - 0,0
05.12.2019 16:00:00 3,2 -2,9 17 9 29 16 S 969,4 70 0,0
05.12.2019 15:00:00 3,2 -2,3 14 7 32 17 S 970,4 - 0,0
05.12.2019 14:00:00 3,3 -1,6 16 9 27 15 S 970,9 - 0,0
05.12.2019 13:00:00 3,2 -1,0 17 9 - - S 971,5 70 0,0
05.12.2019 12:00:00 3,2 -0,4 22 12 40 22 S 971,9 - 0,0
05.12.2019 11:00:00 3,2 -0,1 19 10 42 23 S 972,8 - 0,0
05.12.2019 10:00:00 2,7 0,4 18 10 37 20 S 973,4 30 0,8
05.12.2019 09:00:00 2,8 1,2 16 8 50 27 SSW 973,7 - 0,3

tt = temperature
td = dewpoint
ff = wind speed
fx = gusts
dd = wind direction
ppp = reduced air pressure
vv = visibility
rr = precipitation

Next stations